Flag for Switzerland Weather past 2 weeks in Thônex, Geneva, Switzerland

41 °F

Partly cloudy.

Feels Like: 39 °F
Forecast: 38 / 49 °F
Wind: 3 mph from North

Location: Geneva Cointrin Airport

Current Time: Nov 30, 2015 at 12:44:18 AM

Latest Report: Nov 29, 2015 at 11:50 PM

Visibility: N/A

Pressure: 30.48 "Hg

Humidity: 93%

Dew point: 39 °F

Location of ThônexLocation

Historic Weather in Thônex — Graph


Thônex temperature yesterday

Maximum temperature yesterday: 43 °F (at 8:50 PM)
Minimum temperature yesterday: 28 °F (at 12:20 AM)
Average temperature yesterday: 37 °F

Past Weeks' High & Low Weather Summary

High64 °F (Nov 16, 3:50 PM)100% (Nov 22, 1:20 AM)30.48 "Hg (Nov 22, 1:20 AM)
Low25 °F (Nov 24, 7:20 AM)39% (Nov 15, 12:20 PM)29.50 "Hg (Nov 21, 12:20 PM)
Average43 °F76%30.09 "Hg
* Reported Nov 14 10:20 PM — Nov 29 10:50 PM, Thônex, Weather by CustomWeather, © 2015

Note: Actual official high and low records may vary slightly from our data, if they occured in-between our weather recording intervals... More about our weather records


Thônex weather history for previous 24 hours

Time TempWeatherWind HumidityBarometerVisibility
10:50 PM
Sun, Nov 29
41 °FSprinkles. Partly cloudy.5 mph93%30.48 "HgN/A
10:20 PM41 °FSprinkles. Passing clouds.5 mph93%30.45 "Hg6 mi
9:50 PM43 °FSprinkles. Partly cloudy.6 mph87%30.45 "HgN/A
9:20 PM43 °FSprinkles. Partly cloudy.12 mph87%30.45 "HgN/A
8:50 PM43 °FSprinkles. Partly cloudy.8 mph87%30.45 "HgN/A
8:20 PM41 °FSprinkles. Partly cloudy.6 mph93%30.45 "HgN/A
7:50 PM41 °FPassing clouds.5 mph93%30.45 "HgN/A
7:20 PM41 °FSprinkles. Partly cloudy.6 mph93%30.45 "HgN/A
6:50 PM41 °FSprinkles. Partly cloudy.5 mph93%30.45 "HgN/A
6:20 PM41 °FSprinkles. Partly cloudy.5 mph87%30.45 "HgN/A
5:50 PM41 °FLight rain. Passing clouds.7 mph93%30.45 "Hg6 mi
5:20 PM41 °FPartly cloudy.12 mph87%30.42 "HgN/A
4:50 PM41 °FDrizzle. More clouds than sun.6 mph87%30.42 "Hg4 mi
4:20 PM41 °FSprinkles. Partly sunny.3 mph87%30.42 "Hg5 mi
3:50 PM41 °FSprinkles. Partly sunny.9 mph87%30.39 "Hg4 mi
3:20 PM41 °FPartly sunny.10 mph87%30.39 "HgN/A
2:50 PM41 °FMostly cloudy.8 mph87%30.39 "HgN/A
2:20 PM41 °FSprinkles. Mostly cloudy.6 mph87%30.39 "HgN/A
1:50 PM39 °FSprinkles. Mostly cloudy.10 mph87%30.36 "HgN/A
1:20 PM39 °FMostly cloudy.9 mph87%30.39 "HgN/A
12:50 PM39 °FLight rain. Mostly cloudy.7 mph87%30.39 "HgN/A
12:20 PM39 °FLight rain. Mostly cloudy.8 mph87%30.39 "HgN/A
11:50 AM39 °FLight rain. Mostly cloudy.7 mph87%30.39 "HgN/A
11:20 AM37 °FLight rain. Overcast.8 mph87%30.39 "HgN/A
10:50 AM37 °FLight rain. Overcast.7 mph87%30.39 "HgN/A
10:20 AM37 °FLight rain. Overcast.5 mph87%30.39 "HgN/A
9:50 AM36 °FLight rain. Overcast.7 mph93%30.39 "HgN/A
9:20 AM36 °FLight rain. Overcast.7 mph93%30.39 "HgN/A
8:50 AM36 °FLight rain. Overcast.6 mph87%30.39 "HgN/A
7:50 AM37 °FLight rain. Passing clouds.7 mph81%30.36 "HgN/A
6:50 AM36 °FLight snow. Passing clouds.6 mph87%30.33 "HgN/A
6:20 AM34 °FLight snow. Passing clouds.3 mph87%30.33 "HgN/A
5:50 AM34 °FPassing clouds.3 mph87%30.33 "HgN/A
5:20 AM32 °FPassing clouds.2 mph93%30.33 "HgN/A
4:50 AM32 °FPassing clouds.2 mph93%30.33 "HgN/A
4:20 AM32 °FPassing clouds.1 mph87%30.33 "HgN/A
3:50 AM32 °FPassing clouds.2 mph93%30.33 "HgN/A
3:20 AM32 °FPassing clouds.3 mph93%30.33 "HgN/A
2:50 AM32 °FPartly cloudy.2 mph93%30.33 "HgN/A
1:50 AM30 °FClear.5 mph93%30.33 "Hg10 mi
1:20 AM28 °FPassing clouds.3 mph93%30.33 "HgN/A
12:50 AM28 °FClear.1 mph93%30.33 "Hg10 mi
12:20 AM28 °FClear.2 mph93%30.30 "Hg10 mi
Weather by CustomWeather, © 2015

See weather overviewHow to use our weather pages